Location: Alafon
(8.4500°N, 4.2333°E)
Time: 13:22:01
(UTC+00:00)

A-11 Canister half - All Passes

Search period start: 02 August 2021 00:00
Search period end: 12 August 2021 00:00
Orbit: 1527 x 1682 km, 47.3° (Epoch: 01 August)

Date Brightness Start Highest point End Pass type
(mag) Time Alt. Az. Time Alt. Az. Time Alt. Az.
02 Aug - 07:33:06 10° SSW 07:42:55 61° SE 07:52:51 10° NE daylight
02 Aug - 09:39:31 10° WSW 09:48:08 32° NW 09:56:51 10° NNE daylight
02 Aug - 16:17:01 10° NNE 16:19:04 11° NE 16:21:06 10° NE daylight
02 Aug - 18:16:11 10° NNW 18:25:32 55° NE 18:34:37 10° SE visible
02 Aug - 20:22:16 10° WNW 20:30:13 31° SW 20:38:06 10° S visible
03 Aug - 07:11:32 10° SSW 07:21:14 57° SE 07:31:05 10° NE daylight
03 Aug - 09:17:36 10° WSW 09:26:24 34° NW 09:35:18 10° NNE daylight
03 Aug - 17:54:34 10° NNW 18:03:51 52° NE 18:12:52 10° ESE daylight
03 Aug - 20:00:22 10° WNW 20:08:34 33° SW 20:16:40 10° S visible
04 Aug - 06:49:57 10° SSW 06:59:33 53° SE 07:09:18 10° NE daylight
04 Aug - 08:55:42 10° WSW 09:04:40 36° NW 09:13:45 10° NNE daylight
04 Aug - 17:32:57 10° NNW 17:42:11 48° NE 17:51:07 10° ESE daylight
04 Aug - 19:38:30 10° WNW 19:46:55 36° SW 19:55:13 10° SSE visible
05 Aug - 06:28:25 10° SSW 06:37:53 50° SE 06:47:31 10° ENE daylight
05 Aug - 08:33:50 10° WSW 08:42:57 39° NW 08:52:11 10° NNE daylight
05 Aug - 17:11:22 10° NNW 17:20:30 45° NE 17:29:21 10° ESE daylight
05 Aug - 19:16:39 10° WNW 19:25:17 39° SW 19:33:46 10° SSE visible
06 Aug - 06:06:54 10° SSW 06:16:12 46° SE 06:25:41 10° ENE daylight
06 Aug - 08:12:00 10° WSW 08:21:13 42° NW 08:30:36 10° NNE daylight
06 Aug - 16:49:47 10° NNW 16:58:49 42° NE 17:07:33 10° ESE daylight
06 Aug - 18:54:50 10° WNW 19:03:38 42° SW 19:12:17 10° SSE visible
07 Aug - 05:45:22 10° SSW 05:54:32 43° SE 06:03:51 10° ENE daylight
07 Aug - 07:50:09 10° WSW 07:59:30 44° NW 08:09:01 10° NNE daylight
07 Aug - 16:28:11 10° NNW 16:37:07 40° NE 16:45:45 10° ESE daylight
07 Aug - 18:33:01 10° WNW 18:42:00 45° SW 18:50:48 10° SSE visible
08 Aug - 05:23:52 10° SSW 05:32:52 40° SE 05:42:01 10° ENE daylight
08 Aug - 07:28:21 10° WSW 07:37:47 47° NW 07:47:25 10° NNE daylight
08 Aug - 16:06:37 10° NNW 16:15:25 37° NE 16:23:55 10° ESE daylight
08 Aug - 18:11:13 10° WNW 18:20:21 49° SW 18:29:17 10° SSE visible
09 Aug - 05:02:24 10° SSW 05:11:11 37° SE 05:20:08 10° ENE visible
09 Aug - 07:06:33 10° WSW 07:16:04 51° NW 07:25:49 10° NNE daylight
09 Aug - 09:22:23 10° NW 09:22:54 10° NNW 09:23:26 10° NNW daylight
09 Aug - 15:45:03 10° NNW 15:53:43 35° NE 16:02:04 10° ESE daylight
09 Aug - 17:49:25 10° NW 17:58:43 53° SW 18:07:46 10° SSE daylight
10 Aug - 04:40:57 10° S 04:49:31 34° SE 04:58:15 10° ENE visible
10 Aug - 06:44:46 10° WSW 06:54:22 54° NW 07:04:11 10° NNE daylight
10 Aug - 08:58:35 10° NW 09:01:03 11° NW 09:03:32 10° NNW daylight
10 Aug - 15:23:30 10° NNW 15:32:00 32° NE 15:40:13 10° ESE daylight
10 Aug - 17:27:39 10° NW 17:37:04 57° SW 17:46:14 10° SSE daylight
11 Aug - 04:19:31 10° S 04:27:51 32° SE 04:36:19 10° ENE visible
11 Aug - 06:23:00 10° SW 06:32:39 58° NW 06:42:34 10° NNE daylight
11 Aug - 08:35:46 10° NW 08:39:13 12° NW 08:42:40 10° NNW daylight
11 Aug - 15:01:57 10° NNW 15:10:17 30° NE 15:18:20 10° ESE daylight
11 Aug - 17:05:54 10° NW 17:15:25 61° SW 17:24:40 10° SSE daylight
